sat.trackr.live / text

‹ back to catalog

STARLINK-34135

NORAD 63964 · 2025-099N

PAYLOAD ACTIVE UNKNOWN

§ Identity

Operator
Country
US
Launch date
2025-05-13
Launch site
AFETR
Launch vehicle
Mass (kg)
RCS (m²)

Purposes: comms

External: N2YO · Heavens-Above · Gunter

§ Orbital elements

Epoch: 2026-09-20T03:00:09.492768Z

Period
94.27 min
Inclination
42.9995°
Eccentricity
0.0001321
Mean motion
15.27589856 rev/d
Perigee alt
482.1 km
Apogee alt
483.9 km
Semi-major
6,861.2 km
B*
3.5447e-4
RAAN
158.0640°
Arg perigee
269.4192°
Mean anomaly
90.6508°
Rev number
7,707

§ Raw data

STARLINK-341351 63964U 25099N   26263.12510987  .00009508  00000+0  35447-3 0  99922 63964  42.9995 158.0640 0001321 269.4192  90.6508 15.27589856 77077

JSON: /api/v1/satellites/63964 · /tle

For live sub-satellite position, see the globe view (requires WebGL).

§ Visibility from observer

Set your observer location to see the next 7 days of passes ≥ 10°. The values pass through the URL so the page stays shareable.

No JS? Fill the form by hand. The geolocation button needs JavaScript.